Flag for Germany Weather past 2 weeks in Augsburg, Bavaria, Germany

Now
64 °F

Sunny.


Feels Like: 64 °F
Forecast: 49 / 70 °F
Wind: 6 mph from East

Location: Augsburg Airport

Current Time: Apr 26, 2015 at 7:19:13 PM

Latest Report: Apr 26, 2015 at 6:50 PM


Visibility: 10 mi

Pressure: 29.71 "Hg

Humidity: 52%

Dew point: 46 °F

Location of AugsburgLocation

Historic Weather in Augsburg — Graph

°F

Augsburg temperature yesterday

Maximum temperature yesterday: 66 °F (at 12:50 PM)
Minimum temperature yesterday: 41 °F (at 6:50 AM)
Average temperature yesterday: 58 °F

Past Weeks' High & Low Weather Summary

 TemperatureHumidityPressure
High75 °F (Apr 15, 4:20 PM)100% (Apr 14, 6:20 AM)30.45 "Hg (Apr 14, 6:20 AM)
Low30 °F (Apr 20, 6:20 AM)20% (Apr 15, 4:50 PM)29.71 "Hg (Apr 26, 6:20 PM)
Average56 °F54%30.14 "Hg
* Reported Apr 11 6:20 PM — Apr 26 6:20 PM, Augsburg, Weather by CustomWeather, © 2015

Note: Actual official high and low records may vary slightly from our data, if they occured in-between our weather recording intervals... More about our weather records

Advertising

Augsburg weather history for previous 24 hours

 ConditionsComfort  
Time TempWeatherWind HumidityBarometerVisibility
6:20 PM
Sun, Apr 26
66 °FSunny.3 mph46%29.71 "Hg10 mi
5:50 PM66 °FSunny.3 mph46%29.74 "Hg10 mi
5:20 PM68 °FSunny.1 mph40%29.74 "Hg10 mi
4:50 PM68 °FSunny.2 mph38%29.74 "Hg10 mi
4:20 PM68 °FSunny.3 mph40%29.74 "Hg10 mi
3:50 PM66 °FSunny.2 mph43%29.77 "Hg10 mi
3:20 PM66 °FPassing clouds.5 mph40%29.77 "HgN/A
2:50 PM68 °FPassing clouds.7 mph38%29.80 "HgN/A
2:20 PM68 °FPassing clouds.3 mph43%29.80 "HgN/A
1:50 PM66 °FPassing clouds.5 mph49%29.80 "HgN/A
1:20 PM64 °FPassing clouds.5 mph52%29.83 "HgN/A
12:50 PM63 °FPassing clouds.5 mph52%29.83 "HgN/A
12:20 PM61 °FPassing clouds.3 mph52%29.83 "HgN/A
11:50 AM64 °FPassing clouds.6 mph60%29.86 "HgN/A
11:20 AM63 °FPassing clouds.6 mph59%29.86 "HgN/A
10:50 AM61 °FScattered clouds.7 mph63%29.86 "HgN/A
10:20 AM61 °FPassing clouds.3 mph68%29.86 "HgN/A
9:50 AM59 °FPassing clouds.3 mph72%29.86 "HgN/A
9:20 AM55 °FPassing clouds.7 mph82%29.86 "HgN/A
8:50 AM55 °FScattered clouds.8 mph82%29.86 "HgN/A
8:50 PM
Sat, Apr 25
54 °FDrizzle. Partly sunny.5 mph100%29.89 "HgN/A
8:20 PM54 °FPartly sunny.6 mph100%29.89 "HgN/A
7:50 PM54 °FRain. Mostly cloudy.7 mph100%29.92 "Hg6 mi
7:20 PM55 °FLight rain. Overcast.8 mph77%29.89 "HgN/A
Weather by CustomWeather, © 2015

See weather overviewHow to use our weather pages